Home   Weather   Kingston upon Hull   Past weeks

Flag for United Kingdom Past Weather in Kingston upon Hull, England, United Kingdom — Yesterday and Last 2 Weeks

Now
43 °F

Fog.


Feels Like: 37 °F
Forecast: N/A
Wind: 9 mph from South

Location: Humberside

Current Time: Jan 18, 2017 at 8:14:01 pm

Latest Report: Jan 18, 2017 at 6:50 pm


Visibility: 1 mi

Pressure: 30.63 "Hg

Humidity: 100%

Dew Point: 43 °F

Location of Kingston upon HullLocation

Past Weather in Kingston upon Hull — Graph

°F

Kingston upon Hull Temperature Yesterday

Maximum temperature yesterday: 43 °F (at 12:50 pm)
Minimum temperature yesterday: 36 °F (at 6:20 am)
Average temperature yesterday: 40 °F

High & Low Weather Summary for the Past Weeks

 TemperatureHumidityPressure
High54 °F (Jan 11, 4:50 am)100% (Jan 5, 7:20 am)30.63 "Hg (Jan 5, 7:20 am)
Low30 °F (Jan 5, 7:20 am)62% (Jan 11, 9:50 am)29.39 "Hg (Jan 12, 5:20 pm)
Average41 °F90%30.16 "Hg
* Reported Jan 3 6:20 pm — Jan 18 6:50 pm, Kingston upon Hull, Weather by CustomWeather, © 2017

Note: Actual official high and low records may vary slightly from our data, if they occured in-between our weather recording intervals... More about our weather records

Advertising

Kingston upon Hull Weather History for the Previous 24 Hours

Scroll right to see more
 ConditionsComfort  
Time TempWeatherWind HumidityBarometerVisibility
6:50 pm
Wed, Jan 18
43 °FFog.9 mph100%30.63 "Hg1 mi
6:20 pm43 °FFog.7 mph100%30.63 "Hg2 mi
5:50 pm43 °FFog.6 mph100%30.63 "Hg2 mi
5:20 pm43 °FFog.8 mph100%30.63 "Hg2 mi
4:50 pm43 °FFog.6 mph100%30.63 "Hg1 mi
4:20 pm43 °FFog.8 mph100%30.63 "Hg1 mi
3:50 pm43 °FFog.9 mph100%30.63 "Hg1 mi
3:20 pm43 °FFog.10 mph100%30.63 "Hg1 mi
2:50 pm43 °FFog.10 mph100%30.63 "Hg1 mi
2:20 pm43 °FFog.10 mph100%30.63 "Hg1 mi
1:50 pm43 °FFog.9 mph100%30.63 "Hg1 mi
1:20 pm43 °FFog.9 mph100%30.63 "Hg1 mi
12:50 pm43 °FFog.12 mph100%30.63 "Hg1 mi
12:20 pm41 °FFog.12 mph100%30.63 "Hg1 mi
11:50 am41 °FFog.10 mph100%30.63 "Hg1 mi
11:20 am41 °FDrizzle. Fog.12 mph100%30.63 "Hg1 mi
10:50 am41 °FDrizzle. Fog.10 mph100%30.63 "Hg1 mi
10:20 am41 °FDrizzle. Fog.10 mph100%30.63 "Hg1 mi
9:50 am41 °FDrizzle. Fog.10 mph100%30.63 "Hg1 mi
9:20 am41 °FDrizzle. Fog.10 mph100%30.63 "Hg1 mi
8:50 am39 °FDrizzle. Fog.12 mph100%30.63 "Hg1 mi
8:20 am41 °FDrizzle. Fog.12 mph100%30.63 "Hg1 mi
7:50 am39 °FFog.13 mph100%30.60 "Hg1 mi
7:20 am39 °FFog.13 mph100%30.60 "Hg1 mi
6:50 am39 °FFog.12 mph100%30.60 "Hg1 mi
6:20 am39 °FFog.14 mph100%30.60 "Hg1 mi
5:50 am39 °FFog.13 mph100%30.60 "Hg1 mi
5:20 am39 °FFog.13 mph100%30.57 "Hg1 mi
4:50 am39 °FFog.13 mph100%30.57 "Hg1 mi
4:20 am39 °FFog.12 mph100%30.57 "Hg1 mi
3:50 am39 °FFog.12 mph100%30.60 "Hg1 mi
3:20 am39 °FFog.12 mph100%30.60 "Hg1 mi
2:50 am39 °FFog.13 mph100%30.60 "Hg1 mi
2:20 am39 °FFog.13 mph100%30.60 "Hg1 mi
1:50 am39 °FFog.13 mph100%30.60 "Hg1 mi
1:20 am39 °FFog.14 mph100%30.60 "Hg2 mi
12:50 am39 °FFog.13 mph100%30.60 "Hg3 mi
12:20 am39 °FFog.14 mph100%30.60 "Hg3 mi
11:50 pm
Tue, Jan 17
41 °FFog.14 mph93%30.60 "Hg2 mi
11:20 pm39 °FFog.14 mph100%30.60 "Hg2 mi
10:50 pm39 °FFog.13 mph100%30.60 "Hg2 mi
10:20 pm39 °FFog.14 mph100%30.60 "Hg1 mi
9:50 pm39 °FDrizzle. Fog.15 mph100%30.60 "Hg2 mi
9:20 pm39 °FDrizzle. Fog.17 mph100%30.60 "Hg2 mi
8:50 pm39 °FDrizzle. Fog.17 mph100%30.60 "Hg2 mi
8:20 pm39 °FDrizzle. Fog.17 mph100%30.60 "Hg2 mi
Weather by CustomWeather, © 2017

See weather overviewHow to use our weather pages